[[{"header":{"parameterUnit":"m.s-1","parameterCategory":1,"la1":30.2991,"la2":30.254,"lo1":-89.0895,"lo2":-89.0444,"dy":0.0017,"dx":0.0017,"nx":28,"ny":28,"refTime":"2024-05-30T03:00:00:Z","depth":0,"parameterNumber":2,"parameterNumberName":"U-component_of_WINDS"},"data":[0,0,0,0,0,0,0,0,0,0,0,0,0,0,0,0,0,0,0,0,0,0,0,0,0,0,0,0,0,0,0,0,0,0,0,0,0,0,0,0,0,0,0,0,0,0,0,0,0,0,0,0,0,0,0,0,0,0,-4.5169,-4.5169,0,-4.5152,-4.5152,-4.5152,-4.5087,-4.5086,-4.5084,-4.5083,-4.5067,-4.5068,-4.5069,0,0,0,0,0,0,0,0,0,0,0,0,0,-4.5147,-4.5148,-4.5169,-4.5169,-4.5168,-4.5152,-4.5152,-4.5152,-4.5088,-4.5086,-4.5084,-4.5082,-4.5067,-4.5068,-4.5069,0,0,0,0,0,0,0,0,0,0,0,0,0,-4.5146,-4.5148,-4.5169,-4.5134,-4.5131,-4.5153,-4.5152,-4.5152,-4.5088,-4.5086,-4.5084,-4.5082,-4.5066,-4.5068,-4.5069,-4.5123,0,0,-4.5074,-4.5074,0,0,0,0,0,0,0,0,-4.5146,-4.5147,-4.514,-4.5137,-4.5133,-4.512,-4.5139,-4.5142,-4.5089,-4.5105,-4.5083,-4.508,-4.5086,-4.5086,-4.5088,-4.5122,-4.5121,-4.5074,-4.5075,-4.5075,-4.5076,0,0,0,0,0,0,0,-4.5147,-4.5147,-4.5162,-4.514,-4.5136,-4.5121,-4.5118,-4.5139,-4.5108,-4.5103,-4.5098,-4.5097,-4.5084,-4.5087,-4.5087,-4.5121,-4.5074,-4.5075,-4.5076,-4.5076,-4.52,-4.5202,0,0,0,0,0,0,-4.5151,-4.5148,-4.5163,-4.5162,-4.5134,-4.5123,-4.512,-4.5126,-4.5108,-4.5103,-4.5099,-4.5094,-4.5085,-4.5085,-4.5086,-4.5148,-4.5075,-4.5077,-4.5077,-4.5197,-4.52,-4.5203,0,0,0,0,0,0,-4.5151,-4.5153,-4.5164,-4.5154,-4.5154,-4.5126,-4.5133,-4.5127,-4.5129,-4.5105,-4.5099,-4.5107,-4.5084,-4.5084,-4.5114,-4.5146,-4.5077,-4.5078,-4.5194,-4.5198,-4.5201,-4.5271,0,0,0,0,0,0,-4.5151,-4.5153,-4.5173,-4.5155,-4.5155,-4.5191,-4.5135,-4.5128,-4.5132,-4.5125,-4.5111,-4.5106,-4.5082,-4.5113,-4.5116,-4.5147,-4.508,-4.5191,-4.5196,-4.52,-4.5266,-4.5276,-4.5286,0,0,0,0,0,-4.515,-4.5193,-4.5174,-4.5176,-4.5178,-4.5193,-4.5193,-4.5164,-4.5135,-4.5154,-4.5139,-4.5107,-4.5143,-4.5116,-4.5119,-4.5151,-4.5189,-4.5195,-4.52,-4.5261,-4.5274,-4.5285,0,0,0,0,0,0,-4.5215,-4.519,-4.5168,-4.5206,-4.5203,-4.5182,-4.5205,-4.5179,-4.5183,-4.5177,-4.5141,-4.5138,-4.5174,-4.5166,-4.5137,-4.5203,-4.5161,-4.5167,-4.5206,-4.5218,-4.5228,-4.5229,-4.5081,0,0,0,0,0,-4.5234,-4.5248,-4.5225,-4.5261,-4.526,-4.5234,-4.5239,-4.5217,-4.5212,-4.521,-4.5196,-4.5193,-4.5203,-4.5211,-4.5219,-4.5265,-4.5261,-4.5289,-4.5299,-4.5308,-4.5313,-4.5337,-4.5349,-4.522,-4.522,-4.522,0,0,-4.5272,-4.526,-4.5271,-4.5274,-4.5268,-4.5284,-4.5232,-4.5251,-4.5263,-4.5213,-4.524,-4.5231,-4.5224,-4.5263,-4.5279,-4.5257,-4.5348,-4.5315,-4.5321,-4.5322,-4.5344,-4.5356,-4.5367,-4.5224,-4.5223,-4.5223,0,0,-4.535,-4.5343,-4.5372,-4.5368,-4.536,-4.5343,-4.535,-4.5335,-4.5327,-4.5354,-4.5317,-4.5331,-4.535,-4.5347,-4.5348,-4.5429,-4.5399,-4.5433,-4.5485,-4.5509,-4.5519,-4.5528,-4.5556,-4.5567,-4.5439,-4.5439,-4.5439,0,-4.5399,-4.5421,-4.539,-4.5412,-4.5414,-4.5371,-4.5401,-4.5399,-4.5394,-4.5398,-4.5374,-4.5397,-4.539,-4.5427,-4.5448,-4.545,-4.5458,-4.5433,-4.552,-4.5528,-4.5536,-4.5563,-4.5574,-4.5443,-4.5443,-4.5442,-4.5442,0,-4.5481,-4.5497,-4.5522,-4.5519,-4.5525,-4.555,-4.5525,-4.5535,-4.5514,-4.5499,-4.5528,-4.5519,-4.5525,-4.5533,-4.5512,-4.5568,-4.5555,-4.5526,-4.5482,-4.5553,-4.5577,-4.5587,-4.5449,-4.5447,-4.5446,-4.5445,0,0,-4.5596,-4.5578,-4.5588,-4.5586,-4.5576,-4.5588,-4.5613,-4.5619,-4.5628,-4.5628,-4.5648,-4.5667,-4.5641,-4.5642,-4.5621,-4.5643,-4.5708,-4.5612,-4.5611,-4.5629,-4.5768,-4.5789,-4.5801,-4.5689,-4.5691,-4.5693,-4.5769,0,-4.5669,-4.5709,-4.5684,-4.5728,-4.5743,-4.5704,-4.5726,-4.5723,-4.5711,-4.5723,-4.571,-4.5723,-4.5688,-4.5689,-4.5709,-4.5695,-4.5735,-4.569,-4.5707,-4.5708,-4.5708,-4.5814,-4.5835,-4.5907,-4.5778,-4.578,-4.5781,0,-4.5759,-4.5763,-4.5809,-4.5798,-4.5803,-4.5823,-4.5827,-4.5839,-4.5835,-4.5825,-4.5829,-4.5803,-4.5828,-4.5787,-4.5821,-4.5791,-4.5797,-4.5792,-4.5794,-4.5793,-4.5747,-4.5814,-4.5929,-4.5939,-4.5796,-4.5794,-4.5793,0,-4.5838,-4.5855,-4.5884,-4.5885,-4.5872,-4.5887,-4.5883,-4.5877,-4.5883,-4.5888,-4.5891,-4.5899,-4.5903,-4.591,-4.5888,-4.5861,-4.5925,-4.5882,-4.5917,-4.5918,-4.593,-4.5929,-4.6046,-4.5937,-4.5937,-4.5937,-4.5937,0,-4.5921,-4.595,-4.5919,-4.5937,-4.597,-4.5942,-4.5975,-4.5967,-4.5963,-4.5979,-4.5947,-4.5963,-4.5934,-4.5948,-4.5931,-4.5961,-4.5964,-4.5956,-4.5951,-4.5958,-4.5959,-4.596,-4.5954,-4.594,-4.5939,-4.5939,-4.5938,0,-4.6012,-4.5993,-4.6022,-4.6009,-4.6007,-4.6031,-4.602,-4.6037,-4.6024,-4.6045,-4.6049,-4.6029,-4.6044,-4.6023,-4.6036,-4.6025,-4.6066,-4.6054,-4.6067,-4.6063,-4.6099,-4.6095,-4.6219,-4.6234,-4.6117,-4.6118,-4.6119,0,-4.6066,-4.6087,-4.6077,-4.6086,-4.6083,-4.6098,-4.6104,-4.6079,-4.6087,-4.6086,-4.6103,-4.6115,-4.6123,-4.6149,-4.6136,-4.6146,-4.6133,-4.6176,-4.6134,-4.6141,-4.6133,-4.6131,-4.6133,-4.6184,-4.6185,-4.6186,-4.6187,0,-4.6163,-4.6153,-4.6162,-4.617,-4.6178,-4.6183,-4.6185,-4.6194,-4.6168,-4.6179,-4.6194,-4.62,-4.6214,-4.6226,-4.6234,-4.623,-4.6205,-4.6201,-4.6209,-4.6216,-4.6222,-4.6218,-4.6089,-4.6198,-4.6197,-4.6196,-4.6195,-4.6195,-4.6236,-4.6253,-4.6249,-4.6262,-4.6261,-4.6265,-4.628,-4.627,-4.6282,-4.629,-4.6276,-4.6295,-4.6293,-4.6299,-4.6299,-4.6314,-4.6295,-4.6308,-4.6311,-4.6314,-4.6319,-4.6221,-4.6316,-4.6315,-4.6315,-4.6315,-4.6314,0,-4.633,-4.6326,-4.6338,-4.6343,-4.6353,-4.633,-4.6332,-4.6342,-4.6359,-4.6359,-4.6368,-4.6386,-4.6399,-4.6388,-4.6399,-4.6413,-4.6402,-4.6417,-4.6414,-4.6414,-4.6335,-4.6326,-4.6426,-4.6426,-4.6426,-4.6426,-4.6426,-4.6426,-4.638,-4.6409,-4.6399,-4.6428,-4.6424,-4.6442,-4.6445,-4.6449,-4.6449,-4.647,-4.6481,-4.6474,-4.647,-4.6481,-4.6492,-4.6489,-4.6494,-4.6512,-4.6505,-4.6431,-4.642,-4.6409,-4.64,-4.6514,-4.6514,-4.6582,-4.6583,-4.6583]},{"header":{"parameterUnit":"m.s-1","parameterCategory":1,"la1":30.2991,"la2":30.254,"lo1":-89.0895,"lo2":-89.0444,"dy":0.0017,"dx":0.0017,"nx":28,"ny":28,"refTime":"2024-05-30T03:00:00:Z","depth":0,"parameterNumber":3,"parameterNumberName":"V-component_of_WINDS"},"data":[0,0,0,0,0,0,0,0,0,0,0,0,0,0,0,0,0,0,0,0,0,0,0,0,0,0,0,0,0,0,0,0,0,0,0,0,0,0,0,0,0,0,0,0,0,0,0,0,0,0,0,0,0,0,0,0,0,0,3.5635,3.5635,0,3.5627,3.5627,3.5627,3.5657,3.5657,3.5658,3.5659,3.5646,3.5645,3.5644,0,0,0,0,0,0,0,0,0,0,0,0,0,3.567,3.5669,3.5635,3.5635,3.5635,3.5627,3.5627,3.5627,3.5656,3.5657,3.5659,3.566,3.5646,3.5645,3.5644,0,0,0,0,0,0,0,0,0,0,0,0,0,3.5657,3.5669,3.5635,3.5648,3.565,3.5627,3.5627,3.5627,3.5656,3.5657,3.5659,3.566,3.5647,3.5645,3.5643,3.5606,0,0,3.5638,3.5637,0,0,0,0,0,0,0,0,3.5658,3.5656,3.5647,3.5647,3.5649,3.5644,3.5635,3.562,3.5656,3.5653,3.5659,3.5661,3.5644,3.5643,3.5638,3.5605,3.5605,3.5638,3.5637,3.5636,3.5635,0,0,0,0,0,0,0,3.5659,3.5657,3.5632,3.5646,3.5648,3.5653,3.5653,3.5632,3.5641,3.5654,3.5656,3.5655,3.5645,3.564,3.5638,3.5605,3.5638,3.5636,3.5635,3.5635,3.5541,3.554,0,0,0,0,0,0,3.5659,3.5657,3.5632,3.5632,3.5657,3.5652,3.5652,3.5644,3.5642,3.5643,3.5654,3.5656,3.5642,3.564,3.5638,3.5594,3.5636,3.5634,3.5633,3.5543,3.5541,3.554,0,0,0,0,0,0,3.5659,3.5656,3.5632,3.5645,3.5642,3.565,3.5641,3.5643,3.5639,3.5642,3.5643,3.5647,3.5643,3.564,3.5614,3.5594,3.5634,3.5632,3.5545,3.5542,3.554,3.5507,0,0,0,0,0,0,3.566,3.5656,3.5643,3.5645,3.5642,3.561,3.564,3.5642,3.5636,3.5639,3.5636,3.5636,3.5644,3.5617,3.5612,3.5592,3.5631,3.5546,3.5544,3.5541,3.551,3.5504,3.5499,0,0,0,0,0,3.5661,3.5633,3.5642,3.5639,3.5626,3.5609,3.5607,3.5618,3.5634,3.5621,3.5623,3.5637,3.5597,3.5614,3.5609,3.5588,3.5548,3.5544,3.5541,3.5512,3.5505,3.5499,0,0,0,0,0,0,3.5626,3.5633,3.5644,3.5615,3.5612,3.5614,3.5597,3.561,3.56,3.5603,3.5615,3.5614,3.5586,3.5584,3.5603,3.5552,3.5575,3.5571,3.5554,3.5548,3.5542,3.5543,3.5629,0,0,0,0,0,3.5616,3.5603,3.5609,3.5583,3.5581,3.5589,3.5582,3.5591,3.5587,3.5585,3.5585,3.558,3.5566,3.5557,3.5544,3.551,3.5509,3.5493,3.5488,3.5483,3.5479,3.5461,3.5454,3.5529,3.5529,3.5529,0,0,3.5593,3.5595,3.5586,3.5576,3.5574,3.556,3.5588,3.5571,3.556,3.5582,3.5558,3.5558,3.5553,3.5522,3.5509,3.552,3.5458,3.5479,3.5475,3.5474,3.5457,3.545,3.5444,3.5527,3.5527,3.5528,0,0,3.5544,3.5544,3.5523,3.5521,3.5519,3.5525,3.552,3.5521,3.5523,3.5499,3.5516,3.5502,3.5478,3.5474,3.5469,3.5419,3.5431,3.5415,3.5386,3.5368,3.5362,3.5357,3.5339,3.5333,3.5411,3.5411,3.5411,0,3.5515,3.5496,3.551,3.5493,3.5488,3.5509,3.5487,3.5484,3.5477,3.5473,3.5486,3.5458,3.5455,3.5425,3.5413,3.5408,3.5401,3.5415,3.5362,3.5357,3.5352,3.5336,3.5329,3.5409,3.5409,3.5409,3.5409,0,3.546,3.5446,3.5429,3.5425,3.5418,3.5398,3.5408,3.5399,3.5409,3.5413,3.5389,3.5387,3.5375,3.5368,3.5376,3.5339,3.5346,3.536,3.5383,3.5343,3.5327,3.5321,3.5406,3.5406,3.5407,3.5408,0,0,3.5388,3.5393,3.5386,3.5385,3.5385,3.5373,3.5354,3.5345,3.5337,3.5331,3.5315,3.5296,3.5309,3.5303,3.5311,3.5296,3.5257,3.5312,3.5312,3.5302,3.5215,3.5204,3.5197,3.5265,3.5264,3.5263,3.5216,0,3.534,3.531,3.5323,3.5291,3.5278,3.5299,3.5282,3.528,3.5283,3.5272,3.5275,3.5261,3.528,3.5277,3.5263,3.5265,3.524,3.5268,3.5249,3.5248,3.525,3.5189,3.5177,3.5132,3.521,3.5209,3.5208,0,3.5281,3.5275,3.5243,3.5246,3.5241,3.5226,3.5218,3.5208,3.5205,3.5208,3.5202,3.5214,3.5194,3.5218,3.5191,3.521,3.5203,3.5203,3.5201,3.52,3.5226,3.5185,3.5118,3.5112,3.5199,3.5199,3.52,0,3.5232,3.5216,3.5195,3.5193,3.5195,3.5185,3.5185,3.5184,3.5177,3.517,3.5166,3.5156,3.515,3.5141,3.5149,3.5166,3.5121,3.5145,3.5123,3.5122,3.5112,3.5112,3.5043,3.5107,3.5107,3.5108,3.5108,0,3.5177,3.5156,3.5173,3.516,3.5137,3.5151,3.5128,3.513,3.5129,3.5116,3.5132,3.5119,3.5131,3.5118,3.5124,3.5101,3.5098,3.51,3.5101,3.5098,3.5098,3.5093,3.5097,3.5106,3.5106,3.5107,3.5107,0,3.5118,3.5129,3.5107,3.5112,3.5113,3.5096,3.51,3.5087,3.5092,3.5075,3.5072,3.5079,3.5066,3.5073,3.5058,3.5063,3.5032,3.5038,3.5034,3.5036,3.5013,3.5015,3.4938,3.4928,3.4999,3.4998,3.4998,0,3.5083,3.5068,3.5072,3.5065,3.5065,3.5054,3.5048,3.5061,3.5054,3.5051,3.5038,3.5026,3.5018,3.4995,3.4998,3.4987,3.4992,3.4966,3.499,3.4988,3.4992,3.4993,3.4991,3.4961,3.496,3.4959,3.4959,0,3.5019,3.5025,3.5017,3.5011,3.5004,3.4999,3.4996,3.4989,3.5002,3.4993,3.4981,3.4974,3.496,3.4948,3.4939,3.4937,3.495,3.4951,3.4946,3.4942,3.494,3.4941,3.502,3.4953,3.4953,3.4954,3.4954,3.4954,3.4971,3.4959,3.496,3.4951,3.495,3.4946,3.4935,3.494,3.493,3.4921,3.4929,3.4914,3.4911,3.4901,3.4898,3.4885,3.4896,3.4887,3.4885,3.4883,3.488,3.4942,3.4883,3.4884,3.4884,3.4884,3.4884,0,3.4908,3.491,3.4902,3.4897,3.4889,3.4904,3.4901,3.4893,3.488,3.4878,3.487,3.4855,3.4843,3.4846,3.4836,3.4825,3.4831,3.4822,3.4823,3.4822,3.4871,3.4877,3.4818,3.4818,3.4818,3.4818,3.4818,3.4818,3.4874,3.4855,3.4861,3.4841,3.4843,3.483,3.4827,3.4823,3.4822,3.4805,3.4797,3.4799,3.4799,3.4788,3.4778,3.4779,3.4774,3.4763,3.4766,3.4812,3.4819,3.4825,3.4831,3.4762,3.4762,3.4719,3.4718,3.4718]}]]